Preview of NWS' New Version of Forecast
This preview is not operational and should not be used for support decisions.

Regional Weather Roundup (RWR)

Issued by National Weather Service (NWS)

                            
000
ASUS46 KPQR 231210
RWROR 

OREGON REGIONAL WEATHER ROUNDUP
NATIONAL WEATHER SERVICE PORTLAND OR
500 AM PDT SUN JUN 23 2019

NOTE: "FAIR" INDICATES FEW OR NO CLOUDS BELOW 12,000 FEET WITH
NO SIGNIFICANT WEATHER AND/OR OBSTRUCTIONS TO VISIBILITY.

ORZ001>013-231300-
NORTHWEST OREGON

  
CITY           SKY/WX    TMP DP  RH WIND       PRES   REMARKS
ASTORIA        CLOUDY    53  50  89 W5        30.24F                  
6HR MIN TEMP:  53; 6HR MAX TEMP:  56; 6HR PCP:  0.01;                

TILLAMOOK      CLOUDY    54  48  82 W7        30.27S                  
NEWPORT        CLOUDY    52  52 100 N7        30.29R                  
PORTLAND       CLOUDY    59  47  64 NW12      30.22R                  
6HR MIN TEMP:  58; 6HR MAX TEMP:  62; 6HR PCP: TRACE;                

VANCOUVER WA   CLOUDY    58  46  64 NW9       30.21S                  
6HR MIN TEMP:  58; 6HR MAX TEMP:  61;                                

SCAPPOOSE      CLOUDY    57  47  69 NW9       30.21S                  
6HR MIN TEMP:  56; 6HR MAX TEMP:  60;                                

HILLSBORO      MOCLDY    53  47  79 NW5       30.21S                  
6HR MIN TEMP:  53; 6HR MAX TEMP:  58;                                

AURORA         CLOUDY    56  50  80 SW3       30.22F                  
6HR MIN TEMP:  56; 6HR MAX TEMP:  62;                                

MCMINNVILLE    CLEAR     50  47  89 CALM      30.21S                  
6HR MIN TEMP:  48; 6HR MAX TEMP:  59;                                

SALEM          CLOUDY    56  48  74 NW9       30.21F                  
6HR MIN TEMP:  56; 6HR MAX TEMP:  60;                                

CORVALLIS      PTCLDY    53  49  86 W3        30.24S                  
EUGENE         CLOUDY    56  50  80 CALM      30.23S                  
6HR MIN TEMP:  49; 6HR MAX TEMP:  58;                                

$$

ORZ021-028-231300-
SOUTHWEST OREGON

  
CITY           SKY/WX    TMP DP  RH WIND       PRES   REMARKS
NORTH BEND     CLOUDY    55  53  93 N9        30.25F                  
6HR MIN TEMP:  55; 6HR MAX TEMP:  56;                                

BROOKINGS      CLEAR     64  46  52 NW5       30.11S                  
ROSEBURG       CLEAR     55  48  77 CALM      30.22S                  
6HR MIN TEMP:  54; 6HR MAX TEMP:  67;                                

SEXTON SUMMIT  CLEAR     47  44  90 N8        30.21S                  
6HR MIN TEMP:  47; 6HR MAX TEMP:  54;                                

GRANTS PASS    FAIR      59  46  63 VRB5      30.21S                  
MEDFORD        CLEAR     55  42  61 CALM      30.18R                  
6HR MIN TEMP:  52; 6HR MAX TEMP:  68;                                

$$

ORZ014>016-041-231300-
COLUMBIA GORGE

  
CITY           SKY/WX    TMP DP  RH WIND       PRES   REMARKS
TROUTDALE      LGT RAIN  57  52  83 NW5       30.21R                  
6HR MIN TEMP:  57; 6HR MAX TEMP:  62; 6HR PCP: TRACE;                

HOOD RIVER     CLOUDY    59  46  63 W12       30.14S                  
THE DALLES     CLOUDY    61  47  59 W15       30.10S                  
6HR MIN TEMP:  61; 6HR MAX TEMP:  65;                                

$$

ORZ029>031-041-044-049-050-061>064-502-503-505>511-231300-
EASTERN OREGON

  
CITY           SKY/WX    TMP DP  RH WIND       PRES   REMARKS
MADRAS         CLEAR     43  39  87 E5        30.17R                  
REDMOND        CLEAR     52  40  63 W6        30.15S                  
6HR MIN TEMP:  50; 6HR MAX TEMP:  60;                                

BEND           CLEAR     46  39  76 W7        30.16S                  
PRINEVILLE     CLEAR     45  39  81 W5        30.15F                  
KLAMATH FALLS  CLEAR     42  38  85 CALM      30.18S                  
6HR MIN TEMP:  41; 6HR MAX TEMP:  59;                                

LAKEVIEW       CLEAR     44  37  76 NW6       30.18S                  
HERMISTON      CLOUDY    60  46  59 SW13      30.05R                  
6HR MIN TEMP:  60; 6HR MAX TEMP:  65;                                

PENDLETON      CLOUDY    58  44  60 W15G25    30.06S                  
6HR MIN TEMP:  57; 6HR MAX TEMP:  63;                                

JOHN DAY       CLEAR     49  40  70 W9        30.13S                  
MEACHAM        PTCLDY    48  41  76 CALM      30.11S                  
6HR MIN TEMP:  48; 6HR MAX TEMP:  55;                                

LA GRANDE      MOCLDY    50  40  68 MISG      30.11S                  
6HR MIN TEMP:  48; 6HR MAX TEMP:  61;                                

BAKER CITY     PTCLDY    47  39  74 SW5       30.09R                  
6HR MIN TEMP:  45; 6HR MAX TEMP:  58;                                

BURNS          CLEAR     44  33  65 CALM      30.13S                  
6HR MIN TEMP:  43; 6HR MAX TEMP:  55;                                

ROME             N/A     48  31  51 S10       30.09S                  
6HR MIN TEMP:  48; 6HR MAX TEMP:  57;                                

ONTARIO        PTCLDY    56  43  61 W7        30.02R                  
6HR MIN TEMP:  53; 6HR MAX TEMP:  64;                                

$$